Location: Home
(42.5358°N, 72.7383°W)
Time: 01:04:30
(UTC-05:00)

Vanguard 1 Rocket - Pass Details

Date: 02 December 2021
Orbit: 651 x 4224 km, 34.3° (Epoch: 23 January)

Event Time Altitude Azimuth Distance (km) Brightness Sun altitude
Exits shadow 01:05:07 22° 105° (ESE) 4,203 10.7 -62.9°
Drops below altitude 10° 01:12:20 10° 86° (E) 5,917 11.7 -61.9°
Sets 01:19:02 0° 78° (ENE) 7,530 12.5 -60.9°
